Flag for U.S.A. Weather past 2 weeks in Lafayette, Louisiana, U.S.A.

Now
56 °F

Clear.


Feels Like: 56 °F
Forecast: 56 / 81 °F
Wind: No wind

Location: Lafayette Regional Airport

Current Time: Oct 21, 2014 at 5:48:15 AM

Latest Report: Oct 21, 2014 at 4:53 AM


Visibility: 10 mi

Pressure: 30.02 "Hg

Humidity: 93%

Dew point: 54 °F

Location of LafayetteLocation

Historic Weather in Lafayette — Graph

°F

Lafayette temperature yesterday

Maximum temperature yesterday: 80 °F (at 2:53 PM)
Minimum temperature yesterday: 55 °F (at 6:53 AM)
Average temperature yesterday: 66 °F

Past Weeks' High & Low Weather Summary

 TemperatureHumidityPressure
High90 °F (Oct 10, 1:53 PM)100% (Oct 7, 2:00 AM)30.12 "Hg (Oct 7, 2:00 AM)
Low54 °F (Oct 15, 4:53 AM)31% (Oct 15, 12:53 PM)29.73 "Hg (Oct 13, 2:53 PM)
Average72 °F77%29.99 "Hg
* Reported Oct 6 3:53 AM — Oct 21 3:53 AM, Lafayette, Weather by CustomWeather, © 2014

Note: Actual official high and low records may vary slightly from our data, if they occured in-between our weather recording intervals... More about our weather records

Advertising

Lafayette weather history for previous 24 hours

 ConditionsComfort  
Time TempWeatherWind HumidityBarometerVisibility
3:53 AM
Oct 21
57 °FClear.3 mph90%30.00 "Hg10 mi
2:53 AM58 °FClear.No wind90%30.01 "Hg10 mi
1:53 AM58 °FClear.3 mph90%30.01 "Hg10 mi
12:53 AM59 °FClear.6 mph87%30.01 "Hg10 mi
11:53 PM
Oct 20
60 °FClear.No wind86%30.02 "Hg10 mi
10:53 PM61 °FClear.No wind83%30.03 "Hg10 mi
9:53 PM62 °FClear.No wind80%30.03 "Hg10 mi
8:53 PM64 °FClear.3 mph78%30.01 "Hg10 mi
7:53 PM64 °FClear.3 mph87%30.02 "Hg10 mi
6:53 PM69 °FSunny.3 mph68%30.01 "Hg10 mi
5:53 PM75 °FSunny.8 mph48%30.00 "Hg10 mi
4:53 PM79 °FSunny.8 mph45%29.99 "Hg10 mi
3:53 PM79 °FSunny.5 mph44%29.99 "Hg10 mi
2:53 PM80 °FSunny.No wind44%30.00 "Hg10 mi
1:53 PM78 °FSunny.6 mph45%30.02 "Hg10 mi
12:53 PM77 °FSunny.N/A48%30.05 "Hg10 mi
11:53 AM75 °FSunny.6 mph54%30.07 "Hg10 mi
10:53 AM72 °FSunny.5 mph61%30.07 "Hg10 mi
9:53 AM66 °FSunny.3 mph75%30.08 "Hg10 mi
8:53 AM61 °FSunny.7 mph83%30.07 "Hg10 mi
7:53 AM57 °FClear.No wind93%30.05 "Hg10 mi
6:53 AM55 °FClear.No wind96%30.04 "Hg10 mi
5:53 AM56 °FClear.3 mph93%30.03 "Hg10 mi
Weather by CustomWeather, © 2014

See weather overviewHow to use our weather pages